Content
SEND FEEDBACK

Daily
Averages
Monthly
Summary
Germany

HEIDELBERG, GERMANY


Home > Europe > Germany
Elevation: 361 feet     Latitude: 49 24N     Longitude: 008 39E

WEATHER
 
SELECT A DAY
Number of Records: 25,994;   Date Range: 7/3/96 - 6/14/13
 
SHARE

PRINT THIS DATA

[ ← Previous Day ]
WEATHER ALMANAC - JANUARY 31, 2013
[ Next Day → ]
[ °C ]   °F
Weather ElementAverageHighLow
Temperature46.9 °F50.2 °F (2:55 pm)43.3 °F (8:23 am)
Dewpoint37.6 °F41 °F (6:30 pm)35.1 °F (6:58 am)
Humidity70.2 %80 % (8:56 pm)58 % (2:55 pm)
Barometer30.05 in30.17 in (8:55 am)29.96 in (3:55 pm)
Wind Speed15.4 mph27.6 mph (3:55 pm)
Wind Gust35.7 mph (3:55 pm)
Weather ElementAverage
Visibility6.2 mi
Wind DirectionSW (227.4 °)

Weather ElementTotal
Precipitation---
Heating Degree Days18.3 (Base 65)
Averaged from 27 records on January 31, 2013
WEATHER CONDITIONS BREAKOUT
WIND DIRECTION BREAKOUT
WEATHER BY HOUR - JANUARY 31, 2013
[ °C ]   °F
Local TimeTemperatureDewpointHumidityBarometerVisibilityWind DirectionWind SpeedGust SpeedPrecipitationEventsConditions
6:58 AM44.1 °F35.1 °F71 %30.15 in6.2 miSSW (210°)15.0 mphMostly Cloudy
8:23 AM43.3 °F35.8 °F75 %30.16 in6.2 miSW (220°)12.7 mphMostly Cloudy
8:29 AM43.5 °F35.6 °F74 %30.16 in6.2 miSW (220°)12.7 mphMostly Cloudy
8:55 AM43.7 °F35.8 °F74 %30.17 in6.2 miSW (230°)12.7 mph18.4 mphOvercast
8:56 AM43.7 °F35.8 °F74 %30.16 in6.2 miSW (220°)12.7 mph18.4 mphOvercast
9:55 AM44.4 °F37.2 °F76 %30.15 in6.2 miSW (220°)9.2 mphMostly Cloudy
9:56 AM44.4 °F37.2 °F76 %30.14 in6.2 miSSW (210°)10.4 mphMostly Cloudy
10:55 AM46.0 °F37.2 °F71 %30.13 in6.2 miWSW (240°)10.4 mphPartly Cloudy
10:56 AM46.0 °F37.2 °F71 %30.12 in6.2 miSW (230°)10.4 mphPartly Cloudy
11:55 AM48.0 °F37.2 °F66 %30.09 in6.2 miSW (220°)18.4 mph24.2 mphPartly Cloudy
11:56 AM48.0 °F37.2 °F66 %30.08 in6.2 miSSW (210°)18.4 mph24.2 mphPartly Cloudy
12:55 PM48.9 °F37.6 °F65 %30.05 in6.2 miWSW (240°)20.7 mph28.8 mphMostly Cloudy
1:55 PM49.6 °F35.8 °F59 %30.01 in6.2 miSW (230°)26.5 mph31.1 mphMostly Cloudy
2:55 PM50.2 °F35.8 °F58 %29.97 in6.2 miWSW (240°)21.9 mph29.9 mphMostly Cloudy
3:55 PM49.5 °F36.3 °F61 %29.96 in6.2 miWSW (250°)27.6 mph35.7 mphMostly Cloudy
4:55 PM48.6 °F38.3 °F68 %29.97 in6.2 miWSW (240°)19.6 mph28.8 mphMostly Cloudy
4:56 PM48.6 °F38.3 °F68 %29.96 in6.2 miSW (230°)18.4 mph28.8 mphMostly Cloudy
5:55 PM47.7 °F39.7 °F74 %29.97 in6.2 miSW (230°)17.3 mph29.9 mphOvercast
6:00 PM48.2 °F39.2 °F71 %29.96 in6.2 miSW (220°)19.6 mph29.9 mphOvercast
6:30 PM48.2 °F41.0 °F76 %29.97 in6.2 miSW (220°)15.0 mph26.5 mphRainLight Rain
6:45 PM48.2 °F39.2 °F71 %29.97 in6.2 miSW (230°)12.7 mphRainLight Rain Showers
6:48 PM48.2 °F39.2 °F71 %29.97 in6.2 miSW (220°)11.5 mphMostly Cloudy
7:56 PM47.3 °F39.4 °F74 %29.98 in6.2 miSSW (210°)8.1 mphMostly Cloudy
8:56 PM46.6 °F40.6 °F80 %30.01 in6.2 miSSW (210°)11.5 mphMostly Cloudy
9:56 PM48.0 °F37.9 °F68 %30.03 in6.2 miWSW (240°)13.8 mphMostly Cloudy
10:56 PM47.8 °F36.9 °F66 %30.03 in6.2 miWSW (250°)16.1 mph25.3 mphMostly Cloudy
11:56 PM46.8 °F38.1 °F72 %30.02 in6.2 miWSW (250°)12.7 mphMostly Cloudy
Hourly data recorded from ETIE, located miles away from Heidelberg, Germany







STORIES FROM OUR PARTNERS